Current Weather Conditions: station 63106

sailwx.info

Wind from 320 at 13 knots

Air temperature 6.2° C

Last reported at 2018-Feb-21 00:00 UTC.
Time now 2018-Feb-21 01:29 UTC

Location: N 61°00' E 001°42'.
View on Google Maps.

See reports from other nearby stations

  
Tides and Currents Weather Stations Pressure Air Temp Water Temp Dewpoint Dewpoint Depression Visibility Wind Speed Wind Dir Waves Ship Positions
date/time (UTC)wind fromknots sea level pressurealtimeterstation pressurevisibilityair tempwater tempwave heightnotes
2018-Feb-21 00:00 320 13 6.2
2018-Feb-20 23:00 320 11 5.9
2018-Feb-20 22:00 310 13 6.5
2018-Feb-20 21:00 310 14 6.4
2018-Feb-20 20:00 310 14 6.5
2018-Feb-20 19:00 300 14 7.7
2018-Feb-20 18:00 300 8 6.4
2018-Feb-20 17:00 210 14 5.6
2018-Feb-20 16:00 210 20 5.0
2018-Feb-20 15:00 200 20 4.8
2018-Feb-20 14:00 200 22 4.4
2018-Feb-20 13:00 200 22 4.2
2018-Feb-20 12:00 190 22 4.0
2018-Feb-20 11:00 180 22 3.8
2018-Feb-20 10:00 180 20 3.8
2018-Feb-20 09:00 180 22 3.9
2018-Feb-20 08:00 170 21 3.9
2018-Feb-20 07:00 170 22 3.9
2018-Feb-20 06:00 170 20 4.0
2018-Feb-20 05:00 180 21 4.4
2018-Feb-20 04:00 170 20 5.1
2018-Feb-20 03:00 170 20 5.0
2018-Feb-20 02:00 170 20 5.3
2018-Feb-20 01:00 170 20 5.4
2018-Feb-20 00:00 170 20 5.3
2018-Feb-19 23:00 170 20 5.5
2018-Feb-19 22:00 170 20 5.4
2018-Feb-19 21:00 170 18 5.6
2018-Feb-19 20:00 170 17 6.0
2018-Feb-19 19:00 160 14 6.5
2018-Feb-19 18:00 150 13 6.5
2018-Feb-19 17:00 140 13 6.4
2018-Feb-19 16:00 140 12 7.6
2018-Feb-19 15:00 140 12 8.8
2018-Feb-19 14:00 130 12 9.2
2018-Feb-19 13:00 150 12 8.1
2018-Feb-19 12:00 150 11 8.5
2018-Feb-19 11:00 150 13 7.4
2018-Feb-19 10:00 150 13 7.4
2018-Feb-19 09:00 130 9 8.6
2018-Feb-19 08:00 130 8 8.0
2018-Feb-19 07:00 140 8 7.6
2018-Feb-19 06:00 130 7 7.1
2018-Feb-19 05:00 120 6 6.5
2018-Feb-19 04:00 120 7 6.9
2018-Feb-19 03:00 130 7 7.3
2018-Feb-19 02:00 120 6 6.9
2018-Feb-19 01:00 120 6 6.1